TimeCDT,TemperatureF,Dew PointF,Humidity,Sea Level PressureIn,VisibilityMPH,Wind Direction,Wind SpeedMPH,Gust SpeedMPH,PrecipitationIn,Events,Conditions,WindDirDegrees,DateUTC
12:14 AM,62.6,57.2,82,30.15,10.0,Calm,Calm,-,N/A,,Clear,0,2013-08-23 05:14:00
12:35 AM,62.6,57.2,82,30.15,10.0,Calm,Calm,-,N/A,,Clear,0,2013-08-23 05:35:00
12:54 AM,60.8,55.4,82,30.14,10.0,Calm,Calm,-,N/A,,Clear,0,2013-08-23 05:54:00
1:15 AM,59.0,55.4,88,30.14,10.0,Calm,Calm,-,N/A,,Clear,0,2013-08-23 06:15:00
1:35 AM,59.0,55.4,88,30.14,10.0,Calm,Calm,-,N/A,,Clear,0,2013-08-23 06:35:00
1:55 AM,57.2,53.6,88,30.13,10.0,Calm,Calm,-,N/A,,Clear,0,2013-08-23 06:55:00
2:14 AM,57.2,53.6,88,30.13,10.0,Calm,Calm,-,N/A,,Clear,0,2013-08-23 07:14:00
2:35 AM,59.0,55.4,88,30.13,10.0,Calm,Calm,-,N/A,,Clear,0,2013-08-23 07:35:00
2:55 AM,57.2,55.4,94,30.13,10.0,Calm,Calm,-,N/A,,Clear,0,2013-08-23 07:55:00
3:15 AM,55.4,53.6,94,30.12,10.0,Calm,Calm,-,N/A,,Clear,0,2013-08-23 08:15:00
3:35 AM,55.4,53.6,94,30.12,10.0,Calm,Calm,-,N/A,,Clear,0,2013-08-23 08:35:00
3:54 AM,55.4,53.6,94,30.12,10.0,Calm,Calm,-,N/A,,Clear,0,2013-08-23 08:54:00
4:15 AM,55.4,53.6,94,30.12,10.0,Calm,Calm,-,N/A,,Clear,0,2013-08-23 09:15:00
4:34 AM,55.4,53.6,94,30.12,10.0,ESE,4.6,-,N/A,,Clear,120,2013-08-23 09:34:00
4:54 AM,55.4,53.6,94,30.12,10.0,Calm,Calm,-,N/A,,Clear,0,2013-08-23 09:54:00
5:15 AM,53.6,51.8,94,30.12,10.0,ESE,3.5,-,N/A,,Clear,120,2013-08-23 10:15:00
5:35 AM,55.4,53.6,94,30.12,10.0,ESE,4.6,-,N/A,,Clear,120,2013-08-23 10:35:00
5:55 AM,55.4,53.6,94,30.12,10.0,SE,5.8,-,N/A,,Clear,130,2013-08-23 10:55:00
6:15 AM,55.4,53.6,94,30.12,10.0,SE,6.9,-,N/A,,Clear,130,2013-08-23 11:15:00
6:35 AM,55.4,53.6,94,30.12,10.0,ESE,6.9,-,N/A,,Clear,120,2013-08-23 11:35:00
6:55 AM,57.2,53.6,88,30.12,10.0,SE,5.8,-,N/A,,Scattered Clouds,130,2013-08-23 11:55:00
7:14 AM,57.2,55.4,94,30.13,10.0,SE,5.8,-,N/A,,Mostly Cloudy,130,2013-08-23 12:14:00
7:34 AM,57.2,55.4,94,30.13,10.0,SE,4.6,-,N/A,,Scattered Clouds,130,2013-08-23 12:34:00
7:54 AM,59.0,57.2,94,30.12,10.0,ESE,5.8,-,N/A,,Clear,120,2013-08-23 12:54:00
8:14 AM,60.8,57.2,88,30.11,10.0,ESE,6.9,-,N/A,,Clear,120,2013-08-23 13:14:00
8:34 AM,62.6,59.0,88,30.12,10.0,ESE,6.9,-,N/A,,Clear,120,2013-08-23 13:34:00
8:54 AM,64.4,60.8,88,30.11,10.0,ESE,8.1,-,N/A,,Clear,120,2013-08-23 13:54:00
9:14 AM,68.0,60.8,78,30.11,10.0,ESE,9.2,-,N/A,,Clear,120,2013-08-23 14:14:00
9:34 AM,69.8,60.8,73,30.10,10.0,ESE,8.1,-,N/A,,Clear,120,2013-08-23 14:34:00
9:54 AM,71.6,62.6,73,30.10,10.0,SE,8.1,-,N/A,,Clear,130,2013-08-23 14:54:00
10:14 AM,75.2,62.6,65,30.09,10.0,SE,9.2,-,N/A,,Clear,130,2013-08-23 15:14:00
10:34 AM,75.2,62.6,65,30.09,10.0,SE,9.2,-,N/A,,Clear,130,2013-08-23 15:34:00
10:54 AM,78.8,64.4,61,30.09,10.0,SE,8.1,-,N/A,,Clear,140,2013-08-23 15:54:00
11:15 AM,78.8,64.4,61,30.09,10.0,SE,10.4,-,N/A,,Clear,130,2013-08-23 16:15:00
11:34 AM,80.6,66.2,61,30.08,10.0,ESE,10.4,-,N/A,,Clear,120,2013-08-23 16:34:00
11:55 AM,80.6,66.2,61,30.07,10.0,ESE,8.1,-,N/A,,Clear,120,2013-08-23 16:55:00
12:15 PM,80.6,66.2,61,30.07,10.0,SE,10.4,-,N/A,,Clear,140,2013-08-23 17:15:00
12:34 PM,82.4,66.2,58,30.06,10.0,SE,11.5,18.4,N/A,,Clear,140,2013-08-23 17:34:00
12:54 PM,82.4,66.2,58,30.05,10.0,SE,15.0,19.6,N/A,,Clear,140,2013-08-23 17:54:00
1:14 PM,82.4,66.2,58,30.04,10.0,SE,12.7,19.6,N/A,,Clear,130,2013-08-23 18:14:00
1:34 PM,84.2,66.2,55,30.04,10.0,SE,13.8,18.4,N/A,,Clear,140,2013-08-23 18:34:00
1:54 PM,84.2,68.0,58,30.03,10.0,SE,13.8,23.0,N/A,,Clear,140,2013-08-23 18:54:00
2:14 PM,84.2,68.0,58,30.03,10.0,SE,15.0,19.6,N/A,,Clear,130,2013-08-23 19:14:00
2:34 PM,84.2,68.0,58,30.02,10.0,SE,15.0,18.4,N/A,,Clear,130,2013-08-23 19:34:00
2:55 PM,84.2,69.8,62,30.01,10.0,SE,13.8,19.6,N/A,,Clear,130,2013-08-23 19:55:00
3:14 PM,84.2,69.8,62,30.01,10.0,SE,16.1,-,N/A,,Clear,130,2013-08-23 20:14:00
3:34 PM,84.2,71.6,66,30.01,10.0,SE,17.3,24.2,N/A,,Scattered Clouds,130,2013-08-23 20:34:00
3:54 PM,86.0,71.6,62,30.00,10.0,SSE,8.1,17.3,N/A,,Scattered Clouds,150,2013-08-23 20:54:00
4:14 PM,86.0,71.6,62,29.99,10.0,SE,15.0,19.6,N/A,,Clear,130,2013-08-23 21:14:00
4:34 PM,86.0,71.6,62,29.98,10.0,ESE,12.7,20.7,N/A,,Clear,120,2013-08-23 21:34:00
4:55 PM,86.0,71.6,62,29.98,10.0,SE,13.8,19.6,N/A,,Scattered Clouds,140,2013-08-23 21:55:00
5:14 PM,84.2,71.6,66,29.97,10.0,SE,13.8,-,N/A,,Scattered Clouds,130,2013-08-23 22:14:00
5:34 PM,84.2,71.6,66,29.97,10.0,SE,16.1,20.7,N/A,,Clear,130,2013-08-23 22:34:00
5:54 PM,84.2,71.6,66,29.96,10.0,SE,17.3,21.9,N/A,,Clear,130,2013-08-23 22:54:00
6:14 PM,84.2,71.6,66,29.96,10.0,SE,16.1,23.0,N/A,,Clear,140,2013-08-23 23:14:00
6:34 PM,84.2,71.6,66,29.96,10.0,SE,15.0,-,N/A,,Clear,130,2013-08-23 23:34:00
6:54 PM,84.2,71.6,66,29.96,10.0,SE,11.5,23.0,N/A,,Clear,130,2013-08-23 23:54:00
7:15 PM,84.2,71.6,66,29.95,10.0,SE,12.7,17.3,N/A,,Scattered Clouds,140,2013-08-24 00:15:00
7:34 PM,82.4,71.6,70,29.95,10.0,SE,12.7,20.7,N/A,,Clear,140,2013-08-24 00:34:00
7:54 PM,82.4,71.6,70,29.94,10.0,SE,11.5,-,N/A,,Clear,130,2013-08-24 00:54:00
8:15 PM,80.6,71.6,74,29.94,10.0,SE,13.8,18.4,N/A,,Scattered Clouds,130,2013-08-24 01:15:00
8:34 PM,80.6,71.6,74,29.94,10.0,SE,11.5,-,N/A,,Clear,130,2013-08-24 01:34:00
8:55 PM,80.6,71.6,74,29.94,10.0,SE,11.5,-,N/A,,Clear,130,2013-08-24 01:55:00
9:14 PM,80.6,71.6,74,29.95,10.0,SE,11.5,18.4,N/A,,Clear,130,2013-08-24 02:14:00
9:34 PM,78.8,71.6,78,29.95,10.0,SE,11.5,16.1,N/A,,Clear,130,2013-08-24 02:34:00
9:54 PM,78.8,73.4,83,29.95,10.0,SE,11.5,-,N/A,,Clear,130,2013-08-24 02:54:00
10:15 PM,78.8,71.6,78,29.95,10.0,SE,12.7,-,N/A,,Clear,140,2013-08-24 03:15:00
10:34 PM,78.8,73.4,83,29.95,10.0,SE,11.5,18.4,N/A,,Clear,130,2013-08-24 03:34:00
10:55 PM,78.8,73.4,83,29.95,10.0,SE,13.8,-,N/A,,Clear,140,2013-08-24 03:55:00
11:14 PM,78.8,73.4,83,29.95,10.0,SE,12.7,19.6,N/A,,Clear,140,2013-08-24 04:14:00
11:34 PM,78.8,73.4,83,29.95,10.0,SE,15.0,19.6,N/A,,Clear,140,2013-08-24 04:34:00
11:55 PM,77.0,73.4,89,29.96,10.0,SE,10.4,18.4,N/A,,Clear,140,2013-08-24 04:55:00